SCP
0 0 0 0 -0 -0 0 0 0 0 0 0 0 0 0 0 0 -0 -0 -0 -0 -0 -0 -0 -0 -0 -0 0 0 0 0 0 0 0 0 0 0 0 -0 -0 -0 0 0
0 0 0 0 0 0 0 0 0 0 0 0 0 0 0 0 0 0 -0 -0 -0 -0 -0 -0 -0 -0 0 0 0 0 0 0 0 0 0 0 0 0 0 0 -0 0 0
0 0 0 0 0 0 0 0 0 0 0 0 0 0 0 0 0 0 0 0 -0 -0 -0 -0 -0 0 0 0 0 0 0 0 0 0 0 0 0 0 0 0 0 0 0
0 0 0 0 0 0 0 0 0 0 0 0 0 0 0 0 0 0 0 0 0 -0 -0 -0 -0 0 0 0 0 0 0 0 0 0 0 0 0 0 0 0 0 0 0
0 0 0 0 0 0 0 0 0 0 0 0 0 0 0 0 0 0 0 0 0 0 -0 -0 -0 0 0 0 0 0 0 0 0 0 0 0 0 0 0 0 0 0 0
0 0 0 0 0 0 0 0 0 0 0 0 0 0 0 0 0 0 0 0 0 0 0 -0 -0 -0 0 0 0 0 0 0 0 0 0 0 0 0 0 0 0 0 0
0 0 0 0 0 0 0 0 0 0 0 0 0 0 0 0 0 0 0 0 0 0 0 0 0 0 0 0 0 0 0 0 0 -0 0 0 0 0 0 0 0 0 0
0 0 0 0 0 0 0 0 0 0 0 0 0 0 0 0 0 0 0 0 0 0 0 0 0 0 0 0 0 0 0 0 0 0 0 0 0 0 0 0 0 0 0
0 0 0 0 0 0 0 0 0 0 0 0 0 0 0 0 0 0 0 0 0 0 0 0 0 0 0 0 0 0 0 0 0 0 0 0 0 0 0 0 -0 0 0
0 0 0 0 0 0 0 0 0 0 0 0 0 0 0 0 0 0 0 0 0 0 0 0 0 0 0 0 0 0 0 0 0 0 0 0 0 0 0 0 0 0 0
0 0 0 0 0 0 0 0 0 0 0 0 0 0 0 0 0 0 0 0 0 0 0 0 0 0 0 0 0 0 0 0 0 0 0 0 0 0 0 0 0 0 0
0 0 0 0 0 0 0 0 0 0 0 0 0 0 0 0 0 0 0 0 0 0 0 0 0 0 0 0 0 0 0 0 0 0 0 0 0 0 0 0 0 0 0
0 0 0 0 0 0 0 0 0 0 0 0 0 0 0 0 0 0 0 0 0 0 0 0 0 0 0 0 0 0 0 0 0 0 0 0 0 0 0 0 0 0 0
0 0 0 0 0 0 0 0 0 0 0 0 0 0 0 0 0 0 0 0 0 0 0 0 0 0 0 0 0 0 0 0 0 0 0 0 0 0 0 0 0 0 0
0 0 0 0 0 0 0 0 0 0 0 0 0 0 0 0 0 0 0 0 0 0 0 0 0 0 0 0 0 0 0 0 0 0 0 0 1 0 0 0 0 0 0
0 0 0 1 1 1 1 1 0 0 0 0 0 1 1 1 0 0 0 0 0 0 0 0 0 0 0 0 0 0 0 0 0 0 0 0 1 1 0 0 0 0 0
1 1 1 1 1 1 1 1 1 1 1 1 1 1 1 1 1 1 1 0 0 0 0 0 0 0 0 0 0 0 0 0 0 0 0 0 1 1 1 1 1 1 1
1 1 1 1 1 1 1 1 1 1 1 1 1 1 1 1 1 1 1 1 1 1 1 1 0 0 1 1 1 1 1 1 1 1 1 1 1 1 1 1 1 1 1
1 1 1 2 2 2 2 2 2 2 2 2 2 2 2 2 2 1 1 1 1 1 1 1 1 1 1 1 1 1 1 1 1 1 1 1 1 1 1 1 1 1 1
1 1 2 2 3 3 3 3 2 2 2 2 2 2 2 2 2 2 2 1 1 1 1 1 1 1 1 1 1 1 1 1 1 1 1 1 1 1 1 1 1 1 1
1 1 2 2 3 4 4 4 3 3 2 2 3 3 3 3 2 2 2 2 2 2 1 1 1 1 1 1 1 0 0 0 1 1 1 1 1 1 1 1 1 1 1
1 1 2 2 3 4 4 4 4 4 4 3 3 3 3 3 2 2 2 2 2 2 1 1 1 1 1 0 0 0 0 0 0 1 1 1 0 0 1 1 1 1 1
2 2 2 3 3 3 4 5 5 5 5 4 4 3 3 2 2 2 2 2 1 1 1 1 1 1 0 0 0 0 0 0 0 0 0 0 1 1 1 1 1 1 1
2 2 3 3 3 3 4 4 5 5 5 4 4 3 2 2 1 1 1 1 1 1 1 1 0 0 0 0 0 0 1 1 1 0 0 0 1 1 1 1 1 1 1
2 2 2 3 3 4 4 4 5 5 4 4 3 3 2 1 1 1 1 1 1 0 0 0 0 0 0 0 0 0 1 1 1 0 0 0 0 0 1 1 1 1 1
1 1 2 2 3 4 4 4 4 4 4 4 3 3 2 1 1 0 0 0 0 0 0 0 0 0 0 0 0 0 0 0 0 0 0 0 0 0 0 1 1 1 1
Wind_Speed
14 17 19 15 13 13 13 14 14 14 14 14 13 13 12 12 11 10 9 9 9 9 9 8 8 8 9 9 9 9 9 9 9 9 9 8 8 8 8 7 6 9 10
17 19 20 17 15 14 14 14 14 14 14 14 13 12 11 11 10 9 9 8 8 8 8 8 8 7 8 8 8 8 8 7 7 7 7 8 8 6 5 2 5 8 9
18 19 20 17 16 14 14 14 14 14 14 13 12 11 11 10 10 9 9 8 7 7 6 6 6 7 7 6 6 6 6 6 5 5 6 7 9 7 4 4 3 6 7
18 18 18 18 16 15 14 14 13 13 13 12 12 11 11 10 9 9 9 8 7 6 5 5 5 5 6 6 5 5 5 4 4 5 8 3 5 9 5 5 5 5 6
17 16 17 19 17 16 15 14 13 12 12 11 10 10 10 9 9 8 8 7 6 6 5 4 4 4 4 5 6 6 5 5 5 10 6 4 3 8 5 6 7 8 7
16 16 18 19 17 16 15 14 13 12 11 10 10 9 9 8 8 7 7 6 5 5 4 4 4 4 4 3 4 5 6 6 9 11 6 7 6 8 6 8 10 10 10
16 15 18 18 17 15 14 13 12 12 11 10 10 9 8 8 7 7 6 6 5 5 4 4 4 4 4 5 5 5 6 6 11 8 6 8 6 6 6 9 11 12 12
15 14 17 17 16 15 14 13 13 12 11 10 10 9 9 8 7 7 7 6 6 6 5 5 5 5 5 6 6 7 7 10 11 10 9 9 5 6 7 9 10 12 14
14 13 14 16 15 15 14 13 13 12 11 10 10 9 9 9 8 8 8 7 7 7 7 7 7 7 7 7 8 8 9 9 12 9 9 7 7 7 9 11 10 11 13
12 12 12 13 14 14 14 14 13 12 11 10 9 9 9 9 10 9 10 10 9 8 8 8 9 9 9 9 10 10 9 10 13 11 8 5 10 8 11 12 12 11 12
12 11 11 12 12 12 12 14 14 12 11 10 11 11 10 11 12 11 11 7 8 9 10 10 10 11 11 13 14 13 11 10 10 8 7 4 7 9 12 13 14 13 12
14 13 11 11 11 11 9 10 10 11 11 11 9 10 10 8 6 7 6 6 9 10 11 13 12 12 13 10 12 15 9 10 9 7 5 8 8 11 13 14 15 15 14
14 13 12 10 10 10 8 7 7 6 7 10 11 9 8 6 6 7 5 8 10 11 10 9 11 9 7 6 6 6 8 7 5 6 4 10 10 13 14 14 14 15 15
14 14 13 12 10 9 9 7 7 6 6 7 8 10 8 6 6 6 5 6 5 5 5 6 5 7 8 8 8 8 8 7 6 5 3 8 11 13 14 13 12 13 14
14 14 13 12 11 9 9 7 8 8 7 8 6 8 8 7 7 6 5 5 7 6 6 7 7 6 7 8 8 9 8 9 9 8 5 9 12 13 14 13 13 13 13
14 14 12 12 12 11 9 9 8 8 7 8 7 9 10 8 7 6 7 7 7 7 7 6 8 7 7 6 8 9 9 10 9 9 9 8 14 14 14 14 14 13 13
12 12 12 12 12 12 12 12 9 9 9 9 8 9 10 10 9 8 8 8 8 7 7 8 9 7 8 8 9 9 9 9 9 9 10 9 8 13 16 15 15 14 14
10 10 11 10 12 13 12 10 9 9 9 8 8 9 11 12 11 9 9 9 8 7 7 7 8 8 8 8 8 8 9 8 11 10 10 9 8 8 11 16 15 14 15
10 10 11 11 12 12 12 11 11 9 9 9 8 9 10 12 12 10 9 8 8 7 7 8 7 7 8 9 9 9 10 10 10 11 12 12 11 10 10 9 15 15 16
10 11 12 12 12 12 11 10 10 10 10 10 9 9 10 10 12 10 8 9 9 7 7 7 7 7 8 9 10 10 11 12 11 12 13 13 12 13 13 12 10 13 17
9 11 13 13 13 11 10 10 10 10 10 9 8 9 8 9 9 8 8 7 7 7 8 9 8 9 9 8 9 11 11 12 12 10 11 11 12 12 12 11 11 10 9
6 8 10 12 13 13 11 10 9 9 8 7 4 4 5 6 6 6 8 6 6 5 7 8 7 7 7 6 7 9 9 8 8 8 8 8 9 8 9 10 11 10 10
5 5 6 9 10 12 12 9 7 6 5 5 5 4 5 5 5 4 5 5 5 7 7 7 6 7 7 6 6 6 7 7 6 5 6 7 7 7 7 6 8 9 10
6 6 6 7 8 10 10 11 12 10 9 9 7 6 6 6 5 5 5 5 6 7 6 7 6 6 7 6 5 6 8 7 7 7 7 6 6 7 7 6 6 6 8
7 6 6 7 7 7 9 11 11 11 9 7 6 8 7 6 6 6 6 6 7 7 6 5 4 6 5 6 5 5 6 7 9 7 8 7 7 5 4 5 4 4 4
6 6 7 7 7 7 8 9 10 11 10 9 8 8 7 6 7 9 8 8 8 6 6 6 5 6 5 5 6 5 5 5 5 5 7 7 7 5 4 3 3 2 2
Wind_Direction
155 147 149 158 157 150 140 135 136 139 143 146 147 148 148 150 149 145 138 131 123 115 109 105 101 101 106 111 112 109 109 110 110 110 111 109 109 110 116 133 168 116 110
150 147 153 161 160 154 145 138 136 137 140 144 147 148 150 152 152 150 146 143 137 126 118 114 111 109 112 116 117 119 121 122 123 124 133 138 128 123 126 130 348 97 130
148 148 158 163 162 157 150 144 142 142 144 146 149 151 153 156 157 156 155 153 148 138 129 124 121 120 120 123 126 129 133 138 143 150 211 185 135 145 147 149 117 129 146
150 152 161 160 163 160 155 152 149 149 149 151 153 156 159 162 162 161 159 156 153 147 140 136 134 133 135 141 145 148 152 161 177 211 226 178 155 137 179 183 178 177 175
152 156 154 162 166 164 161 158 157 155 154 153 155 159 164 167 168 166 162 160 161 158 156 152 148 148 156 166 172 174 180 193 211 242 235 220 219 133 187 205 199 200 199
158 161 153 168 169 167 166 165 164 162 160 160 162 165 168 170 173 171 172 173 174 175 180 183 182 181 183 187 191 196 203 212 231 237 231 229 226 151 200 225 216 210 209
163 161 156 172 172 172 171 171 171 170 169 170 172 174 175 176 179 182 186 189 191 195 203 209 213 209 209 214 219 222 228 235 255 261 246 240 234 151 221 247 236 222 217
164 164 153 171 178 177 178 178 178 179 180 181 182 183 185 186 189 194 200 206 209 210 211 216 223 226 228 234 237 237 238 252 249 250 243 243 191 167 241 259 254 232 224
167 165 160 171 179 183 185 185 185 186 189 192 194 195 196 198 203 209 214 220 223 225 225 226 227 232 236 240 242 241 242 247 267 264 257 249 156 190 244 259 262 244 230
172 170 172 175 178 184 186 189 192 193 196 202 207 209 208 211 215 219 225 214 228 238 241 240 240 241 242 244 244 243 244 247 248 250 243 221 155 209 247 257 259 255 241
179 178 184 179 182 189 191 178 191 197 203 209 210 213 220 225 215 204 219 188 227 245 250 251 250 250 250 239 236 239 240 247 250 255 257 144 165 225 247 254 255 255 250
184 185 190 187 187 193 198 176 201 203 198 215 221 210 218 231 248 249 141 203 242 251 255 250 251 251 245 249 221 211 236 237 258 253 235 161 201 236 247 250 250 250 249
189 188 190 192 196 200 201 196 206 211 204 213 222 223 234 241 230 235 227 206 221 233 244 232 232 244 250 256 282 257 261 264 249 253 226 170 210 236 248 250 249 248 247
194 194 190 191 197 210 217 206 213 217 212 222 209 222 226 229 246 248 248 257 247 235 244 261 258 261 270 274 264 263 264 258 265 267 253 188 217 235 247 252 250 245 243
195 198 194 192 199 206 221 228 223 226 224 221 232 220 238 240 237 241 246 253 261 259 248 243 255 270 274 269 272 271 273 274 268 266 263 219 224 235 244 250 251 246 241
198 199 197 197 201 206 213 223 228 232 224 242 229 228 226 240 243 246 244 246 254 258 265 273 269 268 267 273 273 273 272 272 267 263 260 240 214 222 235 244 247 246 240
202 201 200 201 205 207 216 224 229 233 229 229 229 229 229 236 236 241 250 248 249 253 253 255 264 268 265 264 265 270 267 266 269 268 267 269 254 217 218 231 238 239 236
211 207 208 209 206 209 216 227 235 237 237 234 234 230 225 236 240 244 251 253 254 255 256 258 262 266 267 270 273 278 279 273 264 262 259 252 257 263 227 216 225 229 230
215 217 216 218 216 212 213 218 232 237 242 244 240 239 232 235 241 244 252 259 263 262 262 265 262 267 275 277 277 270 269 270 270 264 262 261 253 251 258 221 208 219 224
218 218 220 216 218 215 215 217 227 230 231 234 241 245 252 252 251 251 252 256 260 263 264 262 269 266 273 277 280 282 277 272 268 265 263 260 254 250 248 250 229 215 215
226 222 221 222 214 213 216 218 219 223 226 230 236 250 264 272 274 269 265 264 260 258 264 271 273 272 269 277 280 278 271 262 257 258 260 266 265 261 256 247 244 241 210
252 241 236 230 225 219 223 223 228 233 230 228 230 246 269 278 280 275 273 266 262 267 265 267 266 279 283 276 279 290 286 274 248 246 252 257 268 271 264 248 237 236 245
312 289 272 261 248 235 234 229 225 223 223 217 212 213 220 229 244 236 250 259 266 262 255 254 258 255 266 270 262 275 291 300 323 276 263 264 266 271 268 265 243 234 230
343 329 311 292 272 256 243 237 228 223 223 222 210 207 209 204 217 221 219 230 245 249 246 245 245 256 258 268 262 251 261 281 282 289 272 263 263 263 266 260 251 233 231
343 335 326 314 298 282 263 250 243 239 238 230 213 202 195 189 198 209 215 217 226 235 237 247 247 257 261 272 280 278 273 266 256 264 282 288 284 274 262 247 245 246 236
334 331 329 320 306 293 275 262 250 245 242 230 212 198 193 190 194 200 205 216 222 225 221 230 244 245 265 279 281 281 282 281 283 273 281 290 290 288 290 292 280 283 272